Volver al catálogo

STARLINK-2698

ActivoComunicacionesVLEO
NORAD 48458·PAYLOAD·🇺🇸 United States

Lanzado May 9, 2021 desde Cape Canaveral Space Force Station

Loading…

Próximos Pases (próximas 24 horas)

TLE

ActualizadoSource: CelesTrak SupGP

Época: Sep 14, 2026, 21:38 UTC

1 48458C 21040AG  26257.90187500 -.00000790  00000+0 -25348-4 0  2578
2 48458  53.1594  18.2164 0001029  75.1638 328.4477 15.31765306    15

Sigue STARLINK-2698 en tiempo real con AllMySat

Download on the App Store